#timestamp,LO_Frequency,Hit,StdDev 
1456765215.6,286047007.3,Y
1456765235.4,286047002.4,P
1456765255.2,286047001.8,N
1456765275.1,286047005.1,N
1456765276.0,286047005.1,N
1456765295.8,286047007.5,Y
1456765315.6,286047001.9,P
1456765335.5,286047002.2,N
1456765355.3,286047004.1,P
1456765375.1,286047002.0,N
1456765395.9,286047000.9,N
1456765415.7,286047002.7,N
1456765435.5,286047000.0,N
1456765455.3,286047000.4,N
1456765475.2,286046997.0,N
1456765495.0,286046993.4,Y
1456765495.9,286046993.4,P
1456765515.8,286046990.2,N
1456765535.6,286046990.3,N
1456765555.4,286046990.3,N
1456765575.2,286046994.5,N
1456765595.1,286046994.5,N
1456765596.0,286046994.5,N
1456765615.8,286046991.0,N
1456765635.6,286046990.0,N
1456765655.5,286046989.5,Y
1456765675.3,286046996.1,P
1456765695.1,286046997.8,N
1456765715.9,286046991.7,P
1456765735.7,286046994.8,N
1456765755.5,286046994.1,N
1456765775.4,286046997.9,N
1456765795.2,286046993.5,Y
1456765815.0,286047001.1,P
1456765815.9,286047001.1,N
1456765835.8,286046998.7,N
1456765855.6,286046994.9,N
1456765875.4,286046997.7,N
1456765895.3,286047001.2,N
1456765915.1,286046997.8,N
1456765916.0,286046997.8,N
1456765935.8,286046999.0,N
1456765955.7,286046999.2,N
1456765975.5,286046995.2,N
1456765995.3,286046994.2,N
1456766015.1,286046993.6,N
1456766035.9,286046995.7,N
1456766055.7,286046995.4,N
1456766075.5,286046997.1,N
1456766095.4,286046999.4,N
1456766115.2,286046996.9,N
1456766135.0,286046996.5,N
1456766135.9,286046996.5,N
1456766155.8,286046999.1,N
1456766175.6,286046999.5,N
1456766195.4,286046998.4,N
1456766215.3,286046998.9,N
1456766235.1,286046999.0,N
1456766236.0,286046999.0,N
1456766255.8,286046999.2,N
1456766275.7,286046998.8,N
1456766295.5,286047002.8,N
1456766315.3,286046996.9,N
1456766335.1,286046999.1,N
1456766355.9,286046999.0,N
1456766375.7,286046995.0,N
1456766395.5,286046995.7,N
1456766415.4,286046994.0,N
1456766435.2,286046993.4,Y
1456766455.0,286046997.2,P
1456766455.9,286046997.2,P
1456766475.8,286046997.2,P
1456766495.6,286046995.3,Y
1456766515.4,286046999.5,P
1456766535.3,286046993.3,P
1456766555.1,286046994.9,N
1456766575.8,286046996.9,N
1456766595.7,286046997.4,N
1456766615.5,286046995.5,N
1456766635.3,286046997.1,N
1456766655.2,286046997.2,N
1456766675.9,286046993.6,Y
1456766695.7,286046994.9,P
1456766715.6,286046996.8,P
1456766735.4,286046995.3,P
1456766755.2,286046999.4,N
1456766775.1,286047000.5,N
1456766776.0,286047000.5,N
1456766795.8,286046995.2,N
1456766815.6,286046996.1,N
1456766835.5,286046997.6,N
1456766855.3,286046999.6,N
1456766875.1,286046999.3,N
1456766895.9,286046997.5,N
1456766915.7,286046999.9,N
1456766935.5,286047001.6,N
1456766955.3,286047002.8,N
1456766975.2,286047000.0,N
1456766995.0,286046998.8,N
1456766995.9,286046998.8,N
1456767015.7,286046998.5,N
1456767035.6,286046999.4,N
1456767055.4,286047000.7,N
1456767075.2,286046999.1,N
1456767095.1,286046999.0,N
1456767096.0,286046999.0,N
1456767115.8,286046998.6,N
1456767135.6,286046999.8,N
1456767155.5,286047000.5,N
1456767175.3,286046999.4,N
1456767195.1,286046999.4,N
1456767215.9,286046996.6,N
1456767235.7,286046998.0,N
1456767255.5,286046997.7,N
1456767275.4,286046993.8,Y
1456767295.2,286046993.4,P
1456767315.0,286046996.1,N
1456767315.9,286046996.1,N
1456767335.8,286046996.4,N
1456767355.6,286046996.8,N
1456767375.4,286046996.9,N
1456767395.2,286046998.3,N
1456767415.1,286046998.5,N
1456767416.0,286046998.5,N
1456767435.8,286047002.0,N
1456767455.6,286047001.9,N
1456767475.5,286047007.4,Y
1456767495.3,286047010.4,P
1456767515.1,286047014.0,N
1456767535.9,286047013.8,N
1456767555.7,286047013.7,N
1456767575.5,286047016.7,N
1456767595.4,286047018.0,N
1456767615.2,286047021.4,Y
1456767635.0,286047009.9,P
1456767635.9,286047009.9,P
1456767655.8,286047010.5,P
1456767675.6,286047013.3,Y
1456767695.4,286047003.6,P
1456767715.3,286047000.2,N
1456767735.1,286047000.1,N
1456767755.8,286046998.7,N
1456767775.7,286047002.4,N
1456767795.5,286047004.0,N
1456767815.3,286047005.8,N
1456767835.2,286047001.8,N
1456767855.9,286047007.1,N
1456767875.7,286047007.2,N
1456767895.6,286047004.5,N
1456767915.4,286047004.5,N
1456767935.2,286047007.5,N
1456767955.1,286047001.4,N
1456767956.0,286047001.4,N
1456767975.8,286047001.3,N
1456767995.6,286047002.8,N
1456768015.5,286047002.8,N
1456768035.3,286047002.2,N
1456768055.1,286047000.4,N
1456768075.8,286047000.0,N
1456768095.7,286046999.9,N
1456768115.5,286046999.8,N
1456768135.3,286047000.4,N
1456768155.2,286047004.2,N
1456768175.0,286047003.2,N
1456768175.9,286047003.2,N
1456768195.7,286047001.9,N
1456768215.6,286047005.3,N
1456768235.4,286047005.3,N
1456768255.2,286047005.4,N
1456768275.1,286047009.1,Y
1456768276.0,286047009.1,P
1456768295.8,286047004.0,N
1456768315.6,286047003.7,N
1456768335.5,286047005.7,N
1456768355.3,286047006.4,N
1456768375.1,286047006.5,Y
1456768395.9,286047001.4,P
1456768415.7,286046999.9,N
1456768435.5,286047000.4,N
1456768455.4,286047000.3,N
1456768475.2,286046999.6,N
1456768495.0,286046995.5,N
1456768495.9,286046995.5,N
1456768515.8,286046995.8,N
1456768535.6,286046993.4,N
1456768555.4,286046993.7,N
1456768575.3,286046993.8,N
1456768595.1,286046993.9,N
1456768596.0,286046993.9,N
1456768615.8,286046993.0,N
1456768635.7,286046992.0,N
1456768655.5,286046991.6,N
1456768675.3,286046987.6,Y
1456768695.2,286046988.7,P
1456768715.9,286046989.1,N
1456768735.7,286046989.8,N
1456768755.6,286046988.4,Y
1456768775.4,286046998.0,P
1456768795.2,286046995.8,N
